Location: Poigny-la-Forêt
(48.6876°N, 1.7701°E)
Time: 18:47:59
(UTC+02:00)

ISS - Pass Details

Date: 28 March 2019
Orbit: 408 x 410 km, 51.6° (Epoch: 24 April)

Event Time Altitude Azimuth Distance (km) Brightness Sun altitude
Rises 20:53:00 0° 275° (W) 2,337 1.4 -16.0°
Reaches altitude 10° 20:55:08 10° 281° (W) 1,475 0.2 -16.4°
Maximum altitude 20:58:21 48° 357° (N) 543 -3.1 -16.8°
Enters shadow 20:59:38 30° 55° (NE) 772 -2.7 -17.0°
